Regional Weather Roundup
Issued by NWS

Home | Current Version | Previous Version | Text Only | Print | Product List | Glossary On
Versions: 1 2 3 4 5 6 7 8 9 10 11 12 13 14 15 16 17 18 19 20 21 22 23 24 25 26 27 28 29 30 31 32 33 34 35 36 37 38 39 40 41 42 43 44 45 46 47 48 49 50
000
ASUS43 KMKX 020321
RWRWI

WISCONSIN REGIONAL WEATHER ROUNDUP
NATIONAL WEATHER SERVICE MILWAUKEE/SULLIVAN WI
1000 PM CDT WED JUL 01 2015

NOTE: "FAIR" INDICATES FEW OR NO CLOUDS BELOW 12,000 FEET WITH NO
SIGNIFICANT WEATHER AND/OR OBSTRUCTIONS TO VISIBILITY.

WIZ001-002-006>008-014>016-023>028-020400-
NORTHWEST WISCONSIN

CITY           SKY/WX    TMP DP  RH WIND       PRES   REMARKS
SUPERIOR ARPT  PTCLDY    55  52  90 CALM      30.01R
ASHLAND        CLEAR     50  48  93 CALM      30.02S
HAYWARD        CLEAR     60  57  89 CALM      30.03R
SIREN          CLEAR     60  54  80 CALM      30.02S
CUMBERLAND     CLEAR     61  54  77 CALM      30.02S
RICE LAKE      CLEAR     59  56  90 CALM      30.03S
CHETEK         CLEAR     60  56  84 CALM      30.02R
LADYSMITH      CLEAR     58  52  78 NE5       30.04S
EAU CLAIRE     CLEAR     60  55  83 CALM      30.00R
MENOMONIE      CLEAR     63  55  75 CALM      30.01S
NEW RICHMOND   CLEAR     60  55  83 CALM      30.02S
OSCEOLA        CLEAR     62  58  87 CALM      30.04R
$$

WIZ003>005-009-010-017-018-020400-
NORTH CENTRAL WISCONSIN

CITY           SKY/WX    TMP DP  RH WIND       PRES   REMARKS
MANITOWISH WTR CLEAR     49  49  99 CALM      30.04S
ARBOR VITAE    CLEAR     52  47  82 CALM      30.05R
WOODRUFF       CLEAR     52  47  82 CALM      30.05R
RHINELANDER    CLEAR     54  47  77 CALM      30.05R
EAGLE RIVER    CLEAR     52  46  82 CALM      30.04S
LAND O LAKES   CLEAR     49  47  93 CALM      30.06R
PHILLIPS       CLEAR     54  47  78 CALM      30.04R
TOMAHAWK       NOT AVBL
MEDFORD        CLEAR     55  50  81 CALM      30.03R
MERRILL        CLEAR     53  49  87 CALM      30.04R
$$

WIZ029-030-035-036-043>047-020400-
CENTRAL WISCONSIN

CITY           SKY/WX    TMP DP  RH WIND       PRES   REMARKS
WAUSAU         CLEAR     64  45  49 N5        30.01R
MOSINEE        CLEAR     63  46  55 N3        30.02R
MARSHFIELD     CLEAR     59  50  72 CALM      30.02R
STEVENS POINT  CLEAR     55  48  77 CALM      30.02R
WAUPACA        CLEAR     60  52  76 CALM      30.01S
WAUTOMA        CLEAR     56  55  96 CALM      30.02R
WISC RAPIDS    CLEAR     57  50  77 CALM      30.02R
CAMP DOUGLAS   CLEAR     50  50 100 W3        30.01R
$$

WIZ011>013-019>022-031-037>040-048>050-020400-
NORTHEAST WISCONSIN

CITY           SKY/WX    TMP DP  RH WIND       PRES   REMARKS
ANTIGO         CLEAR     53  49  86 NE5       30.04R
SHAWANO        CLEAR     59  49  68 CALM      30.03R
OCONTO         CLEAR     55  51  87 CALM      30.03R
STURGEON BAY   CLEAR     52  45  76 CALM      30.06R
GREEN BAY      CLEAR     57  51  80 SE3       30.03R
MANITOWOC      CLEAR     52  51  97 MISG      30.04R
APPLETON       CLEAR     63  50  63 VRB3      30.02R
CLINTONVILLE   CLEAR     59  50  72 E5        30.02R
OSHKOSH        CLEAR     57  51  80 S5        30.02R
$$

WIZ032>034-041-042-053>061-020400-
SOUTHWEST WISCONSIN

CITY           SKY/WX    TMP DP  RH WIND       PRES   REMARKS
LA CROSSE      CLEAR     62  54  74 CALM      30.01R
SPARTA         CLEAR     54  51  90 CALM      30.02S
VIROQUA        CLEAR     58  53  81 CALM      30.02R
BOSCOBEL       CLEAR     54  52  93 CALM      30.01R
PRAIRIE DU CHI CLEAR     57  53  89 CALM      30.00R
PLATTEVILLE    MOCLDY    57  53  88 NE5       30.00R
$$

WIZ056-057-062-063-064-067-068-020400-
SOUTH CENTRAL WISCONSIN

CITY           SKY/WX    TMP DP  RH WIND       PRES   REMARKS
REEDSBURG      CLEAR     57  52  84 CALM      30.00R
BARABOO/DELLS  CLEAR     56  50  82 CALM      30.02R
LONE ROCK      CLEAR     55  52  89 CALM      30.01R
MINERAL POINT  CLEAR     59  52  77 NE3       30.01R
MADISON        CLEAR     59  51  75 E6        30.01R
MIDDLETON      CLEAR     57  56  95 CALM      30.02R
WATERTOWN      CLEAR     55  55 100 CALM      30.02R
MONROE         PTCLDY    59  54  82 NE6       30.00R
JANESVILLE     CLEAR     57  54  88 E7        30.01R
$$

WIZ051-052-058>065-066-070>072-020400-
SOUTHEAST WISCONSIN

CITY           SKY/WX    TMP DP  RH WIND       PRES   REMARKS
MILWAUKEE      PTCLDY    53  49  86 N6        30.03S
WAUKESHA       CLEAR     52  48  87 CALM      30.03S
MILWAUKEE/TIMM CLEAR     54  46  76 NE3       30.04R
RACINE         PTCLDY    53  49  86 N5        30.03S
BURLINGTON     PTCLDY    50  49  96 CALM      30.02R
KENOSHA        PTCLDY    53  49  86 NE5       30.02R
FOND DU LAC    CLEAR     57  54  89 S5        30.03R
SHEBOYGAN      CLEAR     52  50  93 CALM      30.04R
WEST BEND      CLEAR     52  50  93 CALM      30.03R
JUNEAU         CLEAR     55  52  90 SE5       30.04R
$$

LSZ147-162-020400-
LAKE SUPERIOR

STATION/POSITION TIME  TEMP    WIND        PRES    WAVE
                       AIR SEA DIR/SP/G            HT/PER
                 (UTC) (F)     (DEG/KT/KT) (MB)    (FT/S)
W MID LAKE BUOY  0250   48 39  140/  4/  4 1016.8S   0
DEVILS ISLAND    0300   59     170/  5/  6 1016.6R
SAXON HARBOR     0200   56        CALM     1016.3
$$

LMZ867-665-643>646-020400-
LAKE MICHIGAN

STATION/POSITION TIME  TEMP    WIND        PRES    WAVE
                       AIR SEA DIR/SP/G            HT/PER
                 (UTC) (F)     (DEG/KT/KT) (MB)    (FT/S)
CHAMBERS ISLAND  0200   62      40/ 11/ 15 1016.3R
S GREEN BAY BUOY 0300   61 68  120/ 10/ 14 1018.2
N MID LAKE BUOY  0250   50 42  350/  8/  8 1017.0R   1/ 3
NORTHPORT PIER   0200   59      40/  6/  8 1016.3R
SISTER BAY       0214   56        CALM       N/A
ALGOMA LAKESHORE 0210             CALM       N/A
KEWAUNEE LAKESHO 0200   56      CALM  /  2 1015.9R
SHEBOYGAN LAKESH 0300   55        CALM     1017.5R
PORT WASHINGTON  0200   56      90/  3/  4 1017.3R
ATWATER BUOY     0300   57     350/  6/  8 1018.1R
MILWAUKEE LAKESH 0300   56      20/  5/  6   N/A
KENOSHA   LAKESH 0300   57      10/ 12/ 14 1016.3R
$$

TC  - TEMPERATURE IN CELSIUS
VSB - VISIBILITY IN STATUTE MILES
WCI - WIND CHILL INDEX
HX  - HEAT INDEX



USA.gov is the U.S. government's official web portal to all federal, state and local government web resources and services.